Location: Newark
(37.4425°N, 87.1467°W)
Time: 20:10:47
(UTC+00:00)

ISS - Visible Passes

Search period start: 18 September 2020 00:00
Search period end: 28 September 2020 00:00
Orbit: 419 x 420 km, 51.6° (Epoch: 19 September)

Date Brightness Start Highest point End Pass type
(mag) Time Alt. Az. Time Alt. Az. Time Alt. Az.
18 Sep -3.8 00:59:26 10° SW 01:02:48 89° SSE 01:05:08 19° NE visible
18 Sep -0.2 02:37:56 10° WNW 02:38:09 11° WNW 02:38:09 11° WNW visible
19 Sep -3.4 00:12:14 10° SSW 00:15:28 47° SE 00:18:44 10° ENE visible
19 Sep -1.4 01:49:49 10° W 01:52:27 21° NNW 01:53:13 19° N visible
20 Sep -2.0 01:01:54 10° W 01:04:56 30° NNW 01:07:59 10° NNE visible
21 Sep -2.9 00:14:11 10° WSW 00:17:28 50° NW 00:20:46 10° NE visible
21 Sep -0.8 01:53:39 10° NW 01:54:55 12° NNW 01:55:47 11° N visible
22 Sep -1.0 01:05:12 10° WNW 01:07:16 15° NNW 01:09:21 10° NNE visible
23 Sep -1.4 00:17:02 10° W 00:19:39 21° NNW 00:22:18 10° NNE visible
25 Sep -0.9 00:20:47 10° NW 00:22:02 12° NNW 00:23:18 10° N visible
